Tracking 30115 objects as of 16-Jan-2025
HD Live streaming from Space Station
objects crossing your sky now

COSMOS 660

Track COSMOS 660 now!
10-day predictions
COSMOS 660 is classified as:


NORAD ID: 7337
Int'l Code: 1974-044A
Perigee: 376.1 km
Apogee: 1,030.1 km
Inclination: 82.9 °
Period: 98.7 minutes
Semi major axis: 7074 km
RCS: 2.9855 m2 (large)
Launch date: June 18, 1974
Source: Commonwealth of Independent States (former USSR) (CIS)
Launch site: PLESETSK MISSILE AND SPACE COMPLEX (PKMTR)
Your satellite tracking list
Your tracking list is empty




NASA's NSSDC Master Catalog

Two Line Element Set (TLE):
1  7337U 74044A   25016.08946921  .00007512  00000-0  33237-3 0  9998
2  7337  82.9413 354.3386 0462253 239.7953 115.6718 14.59130815565979
Source of the keplerian elements: AFSPC